Temperature
23 24 25 25 26 26 24 22 22 22 22 22 21 22 22 23 23 23 22 22 22 22 22 22 21 21 21 21 20 20 20 19 19 19 19 18 18 18 18 18 18 18 18 17
22 24 25 25 26 26 25 24 23 22 21 21 22 22 22 22 22 22 22 22 22 22 22 22 21 21 21 20 20 20 19 19 19 19 18 18 18 18 18 18 18 17 17 17
21 22 23 23 24 24 24 23 23 22 21 21 21 21 21 22 22 22 22 22 22 22 22 22 21 21 21 20 20 20 19 19 19 18 18 18 18 18 17 17 17 17 17 17
19 22 22 22 23 24 23 23 22 21 21 21 21 22 22 22 22 21 21 21 21 21 21 21 21 21 21 20 20 19 19 19 18 18 18 18 18 17 17 17 17 17 17 16
18 20 21 22 23 23 22 21 21 21 21 21 22 21 21 22 22 22 22 22 21 21 21 21 21 20 20 20 19 19 19 18 18 18 18 18 17 17 17 17 17 16 16 16
18 20 21 21 23 24 22 20 21 21 20 21 21 18 19 21 22 22 22 22 21 21 21 21 20 20 20 19 19 19 19 18 18 18 18 17 17 17 17 16 16 16 16 16
18 19 19 20 22 22 21 19 20 21 20 21 20 19 21 21 21 21 21 21 21 21 21 20 20 20 19 19 19 19 18 18 18 18 17 17 17 17 16 16 16 16 16 15
17 18 19 20 20 20 19 20 20 21 21 21 21 20 20 20 20 20 20 20 20 20 20 20 19 19 19 19 19 18 18 18 18 17 17 17 16 16 16 16 16 15 15 15
17 17 18 20 20 20 21 20 20 20 20 21 20 20 20 20 20 19 19 19 19 19 19 19 19 19 19 18 18 18 18 17 17 17 17 16 16 16 15 15 15 15 15 15
16 17 18 20 20 20 21 20 20 20 20 21 20 20 20 19 19 19 19 19 19 19 19 19 18 18 18 18 18 17 17 17 17 16 16 16 15 15 15 15 15 15 15 15
16 17 18 19 20 20 20 20 20 20 20 20 20 20 19 19 19 19 18 18 18 18 18 18 18 18 18 18 17 17 17 17 16 16 16 15 15 15 15 15 15 15 15 14
15 17 16 18 19 19 19 19 19 19 19 19 20 19 19 19 18 18 18 18 18 17 17 17 17 17 17 17 17 17 16 16 16 15 15 15 15 15 14 14 14 14 14 14
19 19 19 19 19 19 19 19 19 19 19 19 19 19 18 18 18 18 17 17 17 17 17 17 16 16 16 16 16 16 16 15 15 15 15 15 15 14 14 14 14 14 14 14
19 19 18 18 18 18 18 18 18 18 18 18 18 18 18 17 17 17 17 16 16 16 16 16 16 16 16 15 15 15 15 15 15 15 14 14 14 14 14 14 14 14 14 13
18 18 18 18 18 18 18 18 17 17 17 17 17 17 17 17 16 16 16 16 16 16 15 15 15 15 15 15 14 14 14 14 14 14 14 14 14 14 14 14 14 13 13 13
18 18 17 17 17 17 17 17 16 16 16 16 16 16 16 16 16 15 15 15 15 15 15 15 15 14 14 14 14 14 14 14 14 14 13 13 13 13 13 13 13 13 13 12
17 17 16 17 17 17 16 16 16 16 16 16 16 15 15 15 15 15 15 15 15 15 14 14 14 14 14 14 14 14 14 13 13 13 13 13 13 13 13 13 13 12 12 12
17 17 16 16 16 16 16 16 16 16 15 15 15 15 15 15 14 14 14 14 14 14 14 14 14 14 14 14 14 13 13 13 13 13 13 13 13 13 13 13 12 12 12 12
16 16 16 16 16 16 15 15 15 15 15 15 14 14 14 14 14 14 14 14 14 14 14 14 13 13 13 13 13 13 13 13 13 13 13 13 13 13 12 12 12 12 12 11
15 15 15 15 15 15 15 15 15 14 14 14 14 14 14 14 14 14 13 13 13 13 13 13 13 13 13 13 13 13 13 13 13 12 12 12 12 12 12 12 12 12 11 11
15 15 15 14 14 14 14 14 14 14 14 14 14 14 13 13 13 13 13 13 13 13 13 13 13 13 13 13 13 13 13 12 12 12 12 12 12 12 12 11 11 11 11 11
14 14 14 14 14 14 14 14 14 13 13 13 13 13 13 13 13 13 13 13 13 13 13 13 12 12 13 13 13 12 12 12 12 12 12 12 12 11 11 11 11 11 11 11
14 14 14 14 14 14 13 13 13 13 13 13 13 13 13 13 13 13 12 13 12 12 12 12 12 12 12 12 12 12 12 12 12 12 11 11 11 11 11 11 11 10 10 10
13 13 13 13 13 13 13 13 13 13 13 13 13 13 12 12 12 12 12 12 12 12 12 12 12 12 12 12 12 12 12 11 11 11 11 11 11 11 11 11 10 10 10 10
13 13 13 13 13 13 13 13 13 13 12 12 12 12 12 12 12 12 12 12 12 12 12 12 12 12 12 12 11 11 11 11 11 11 11 11 11 10 10 10 10 10 10 9
13 13 13 13 13 13 12 12 12 12 12 12 12 12 12 12 12 12 12 12 12 12 12 12 11 11 11 11 11 11 11 11 11 11 11 11 10 10 10 10 10 9 9 9
12 12 12 12 12 12 12 12 12 12 12 12 12 12 12 12 12 12 11 11 11 11 11 11 11 11 11 11 11 11 11 11 11 11 10 10 10 10 10 10 10 9 9 9
Wind_Speed
3 3 1 3 4 2 3 6 7 7 6 7 7 8 7 5 5 6 6 7 7 6 5 5 5 5 6 6 6 6 6 6 5 4 4 3 3 3 2 2 2 2 2 2
6 5 5 4 4 1 2 4 6 6 3 4 5 6 6 6 6 6 6 6 6 6 6 5 5 5 6 6 6 6 6 6 5 5 4 4 4 3 2 2 2 2 3 2
3 6 5 4 4 1 2 3 7 6 6 5 5 7 7 6 6 6 6 5 5 5 6 6 6 6 6 6 6 6 6 5 5 5 5 5 5 3 3 3 2 3 3 2
1 3 2 6 3 4 6 4 4 5 5 7 8 7 5 5 6 5 6 5 3 3 3 4 4 5 5 5 5 5 5 5 5 5 5 5 4 4 4 3 3 3 3 3
3 2 4 5 4 1 4 3 3 3 3 4 6 6 2 2 4 5 5 5 4 4 4 4 4 4 5 5 5 5 5 5 5 5 5 4 5 5 4 4 4 3 3 3
3 2 4 5 6 1 6 2 4 3 4 5 6 4 3 3 4 4 3 3 3 3 3 4 4 4 5 4 4 5 5 5 4 4 5 5 5 5 3 3 4 3 2 2
3 3 4 6 6 4 4 4 2 2 4 4 4 5 4 3 3 3 2 2 3 4 4 4 4 4 4 4 5 6 5 4 4 4 5 5 4 3 3 3 2 2 2 1
4 3 6 4 3 3 4 3 1 3 4 5 4 5 5 4 4 2 2 1 2 2 2 2 3 5 3 5 6 4 4 4 4 4 3 3 3 2 2 3 3 2 1 1
5 5 4 1 3 3 4 3 1 3 3 5 5 5 5 4 4 3 2 2 1 2 2 2 3 4 4 4 3 3 3 3 3 2 2 2 3 3 3 2 3 2 2 2
1 1 0 3 3 3 3 3 1 2 4 5 5 4 4 3 2 2 1 1 2 2 1 2 2 2 4 3 3 3 3 3 2 2 2 1 1 2 3 3 3 3 3 3
1 1 2 2 2 2 3 4 4 3 2 4 5 4 4 2 2 2 1 1 2 2 1 2 2 2 2 2 3 3 2 2 2 2 2 1 1 1 2 3 4 5 4 4
4 5 4 3 1 1 2 2 1 1 0 1 4 4 3 3 2 2 2 2 2 2 1 1 0 1 1 1 4 4 3 2 2 2 2 2 2 1 2 0 1 2 4 4
5 4 3 2 1 1 1 1 0 1 2 2 2 3 4 2 2 2 2 2 2 1 0 0 1 1 2 1 2 3 3 3 3 3 3 3 3 3 1 2 2 1 1 3
2 2 1 1 1 1 1 1 1 1 1 2 2 2 2 2 2 2 2 2 2 1 0 0 1 2 2 1 1 2 3 3 3 3 4 4 4 3 3 4 2 1 1 1
1 2 3 1 2 3 2 3 3 2 1 2 2 2 1 2 2 2 1 1 1 1 1 1 2 3 2 1 2 3 3 3 2 2 2 3 3 3 3 4 3 2 0 1
2 1 2 2 2 2 2 1 0 1 1 1 1 1 1 2 2 1 1 2 2 1 2 2 3 3 2 2 2 2 3 4 2 2 2 2 2 2 3 3 3 3 2 2
3 2 2 1 1 1 1 1 2 2 1 1 1 2 2 2 1 0 1 1 2 2 3 3 3 3 2 2 2 2 2 2 3 2 2 3 2 3 3 3 3 3 3 3
4 5 5 4 3 1 1 1 1 1 1 2 2 1 2 2 1 1 2 1 0 2 3 3 3 2 2 2 2 2 2 2 2 2 2 2 2 2 3 3 3 3 2 2
3 2 1 1 1 2 2 2 2 2 1 1 2 2 2 2 2 2 1 1 0 2 4 3 2 1 2 2 2 2 2 2 2 2 2 3 3 2 2 3 3 3 3 3
3 2 2 2 1 1 1 1 1 1 2 2 2 1 1 2 2 1 1 2 3 4 4 2 1 1 2 2 2 2 2 2 2 3 2 2 2 2 2 2 3 3 3 3
2 2 2 1 1 2 1 1 1 2 2 2 3 3 3 3 2 2 1 2 4 3 2 3 2 2 1 1 1 1 1 2 2 2 3 3 3 2 2 2 2 2 3 3
1 1 1 2 2 3 2 2 2 2 1 1 1 2 2 2 3 3 3 4 4 4 2 2 2 2 1 1 1 1 1 2 2 2 2 3 3 3 2 2 2 2 2 2
1 2 3 3 3 4 3 2 2 2 2 2 2 2 3 3 3 3 4 4 3 3 2 2 2 2 2 1 1 1 2 2 2 2 2 2 2 3 3 2 2 2 2 2
2 3 4 3 2 1 2 3 2 1 1 2 3 3 3 2 3 3 4 4 4 3 2 3 4 3 2 1 1 1 2 2 2 2 2 2 2 2 2 2 2 2 2 2
3 3 3 2 1 2 3 2 1 1 2 2 2 3 3 3 3 3 3 3 4 3 3 4 4 3 2 1 2 2 2 2 2 3 3 2 2 2 2 2 2 2 2 2
2 2 2 2 2 2 2 1 1 1 1 1 2 2 1 1 1 1 1 2 3 3 2 2 3 3 2 2 2 2 2 2 2 2 2 2 2 2 2 2 3 2 2 2
2 2 1 1 1 1 1 1 1 1 1 1 1 2 1 0 1 1 1 1 1 1 2 2 2 2 3 2 2 2 2 2 3 3 2 2 2 2 2 3 2 2 2 2
Wind_Direction
223 249 305 288 285 254 169 173 177 196 185 198 184 165 156 151 142 130 133 131 135 144 150 157 161 172 175 167 169 170 166 171 184 185 177 175 182 195 202 205 212 212 214 229
354 341 358 342 328 76 149 147 148 146 197 217 178 140 130 136 135 135 139 143 144 149 147 156 165 176 180 172 170 166 167 176 176 170 172 179 186 193 202 218 242 232 224 231
309 321 16 331 294 195 152 157 153 176 202 172 140 147 157 154 140 136 130 129 146 164 176 179 177 171 172 177 169 169 175 180 183 182 184 196 201 198 219 232 245 252 237 237
123 29 227 248 295 94 95 71 102 133 155 160 160 158 152 152 147 146 136 140 158 173 176 175 169 169 173 171 170 175 179 183 191 190 199 204 197 201 217 227 235 244 239 229
124 179 273 308 332 66 113 38 31 122 138 145 131 101 80 163 152 154 153 157 169 178 175 163 159 169 164 167 173 176 186 194 198 195 198 198 202 211 215 214 228 239 239 225
129 162 221 259 299 300 107 48 329 94 128 140 125 136 215 199 147 138 138 145 148 145 139 153 172 153 151 168 174 188 198 199 194 192 195 203 214 217 213 207 216 221 224 228
160 193 251 276 314 35 108 213 278 103 116 122 142 179 183 139 113 119 130 138 141 149 159 179 176 151 162 184 203 207 200 195 196 201 206 209 212 211 210 210 205 208 215 245
154 179 244 297 36 103 189 215 116 96 113 112 119 108 109 114 116 109 92 101 122 138 156 181 170 158 172 214 216 201 192 195 204 210 218 212 199 214 214 200 191 204 212 235
177 206 233 151 129 157 145 115 114 114 109 114 112 117 122 123 128 131 128 132 130 142 153 178 176 162 184 226 209 184 186 202 211 205 209 196 192 199 202 196 192 197 188 200
92 244 344 74 87 71 78 77 42 106 116 122 125 131 129 136 147 142 127 151 149 142 171 215 204 187 201 211 180 167 185 205 201 189 200 207 193 190 189 189 188 194 191 197
103 216 43 18 91 71 36 46 41 34 74 129 133 142 151 156 178 169 141 142 132 140 173 222 207 212 219 190 157 163 185 199 197 191 183 185 192 209 199 202 198 195 200 190
214 217 176 236 258 74 47 19 24 20 49 181 152 158 163 180 191 170 138 118 100 89 83 313 303 271 281 210 167 167 184 201 205 204 195 183 163 35 7 272 213 190 198 188
208 209 186 217 308 48 74 48 282 181 187 183 157 166 168 182 186 152 133 126 129 147 222 338 330 290 274 230 171 176 191 202 206 201 195 189 186 178 195 354 20 49 182 181
175 129 106 238 253 7 33 346 355 5 118 138 149 163 155 150 141 141 157 172 160 146 43 320 293 283 277 236 182 197 200 202 207 211 207 201 201 200 193 188 196 287 334 209
261 173 192 221 0 15 22 29 27 3 77 88 96 103 144 148 160 183 203 173 130 105 312 302 288 279 281 233 208 220 213 211 210 207 211 209 206 199 188 179 182 184 134 359
181 132 121 96 51 20 28 36 24 263 176 119 105 150 174 164 166 183 206 165 150 226 254 259 268 271 260 229 227 230 225 218 204 192 197 194 188 185 180 177 178 175 186 197
163 181 176 176 249 265 215 215 208 206 208 179 183 174 156 124 98 60 253 215 203 224 233 230 250 269 256 231 224 231 226 220 222 200 192 188 187 187 178 173 179 184 207 210
168 185 185 189 199 217 247 241 209 186 220 228 199 159 154 157 181 232 234 230 269 295 273 243 232 250 259 242 228 226 220 212 205 193 180 170 167 167 162 163 173 184 198 206
91 96 108 97 145 166 196 227 225 222 233 226 190 200 212 213 214 220 206 135 219 283 282 264 230 235 263 261 249 211 197 202 189 161 148 148 149 148 156 163 172 177 178 182
62 59 50 43 69 144 222 225 212 249 255 215 184 185 244 251 224 208 210 236 241 240 247 245 230 252 263 258 247 197 189 191 172 159 151 154 158 164 170 169 173 176 176 180
54 42 26 18 331 297 274 223 215 245 247 194 189 214 234 252 240 219 208 262 276 261 252 238 225 232 230 217 184 143 152 164 166 165 167 173 175 175 183 187 185 180 178 180
19 341 301 289 289 292 283 261 248 242 235 211 213 220 237 265 261 258 249 240 254 253 250 241 221 216 190 156 129 138 145 148 155 160 171 174 173 178 191 191 184 180 172 175
289 278 278 277 272 274 280 268 250 223 215 219 229 231 232 236 228 222 257 261 249 240 228 221 195 177 162 126 128 140 149 151 156 162 170 168 170 174 179 179 179 180 174 177
301 290 283 276 261 260 274 275 260 237 236 252 238 222 218 235 258 246 232 240 228 214 199 200 192 181 158 143 147 154 159 160 160 163 160 146 150 164 172 173 177 182 179 183
289 288 284 281 249 236 238 252 276 288 291 284 263 251 245 223 219 234 232 225 212 194 190 198 197 191 181 186 179 175 175 175 173 164 157 158 170 183 192 188 184 185 185 188
297 295 283 257 234 229 238 233 237 270 273 281 294 295 281 247 213 208 201 195 189 181 184 191 189 184 181 180 183 184 177 169 162 161 166 172 176 181 185 182 178 180 185 189
312 311 318 329 317 239 188 180 206 270 285 272 278 290 282 241 169 148 140 176 188 182 180 185 184 179 173 166 180 201 186 171 170 172 172 174 175 184 190 188 183 177 175 175
Height
1490 1485 1483 1484 1483 1482 1488 1495 1505 1503 1501 1497 1493 1491 1492 1492 1493 1495 1497 1497 1499 1501 1503 1505 1506 1508 1509 1509 1510 1511 1512 1512 1513 1514 1515 1515 1515 1515 1514 1514 1514 1513 1513 1512
1492 1483 1483 1484 1480 1480 1483 1486 1491 1494 1497 1490 1489 1490 1491 1492 1494 1495 1496 1497 1498 1500 1500 1502 1504 1505 1506 1507 1507 1508 1509 1510 1510 1511 1512 1512 1512 1512 1511 1511 1511 1511 1510 1509
1503 1491 1488 1496 1485 1481 1483 1482 1486 1494 1492 1487 1488 1489 1490 1491 1492 1493 1495 1496 1497 1498 1499 1500 1501 1503 1504 1505 1506 1506 1506 1507 1508 1509 1509 1509 1509 1509 1509 1509 1508 1508 1507 1506
1506 1501 1510 1495 1478 1477 1480 1482 1481 1483 1485 1484 1485 1488 1490 1490 1491 1493 1494 1496 1497 1497 1498 1498 1499 1501 1502 1503 1503 1503 1504 1505 1505 1506 1506 1506 1506 1506 1506 1506 1506 1505 1504 1503
1510 1510 1504 1489 1480 1479 1484 1490 1484 1484 1484 1485 1486 1489 1491 1491 1491 1491 1492 1494 1495 1495 1496 1496 1497 1498 1499 1500 1500 1500 1501 1501 1502 1502 1503 1503 1503 1503 1503 1503 1503 1502 1501 1500
1506 1508 1510 1495 1479 1476 1480 1495 1486 1484 1485 1485 1486 1493 1493 1490 1490 1490 1491 1492 1493 1494 1495 1495 1496 1496 1497 1497 1497 1497 1498 1498 1499 1499 1499 1500 1500 1500 1500 1500 1499 1499 1498 1497
1504 1507 1500 1485 1478 1476 1494 1497 1487 1485 1485 1485 1485 1487 1488 1488 1488 1489 1490 1490 1491 1492 1493 1493 1493 1494 1494 1494 1494 1494 1495 1495 1496 1496 1496 1496 1497 1497 1497 1496 1496 1495 1495 1494
1504 1508 1503 1482 1479 1484 1489 1485 1485 1484 1484 1484 1484 1485 1486 1487 1487 1487 1488 1489 1490 1490 1491 1491 1492 1491 1491 1491 1491 1492 1492 1492 1492 1493 1493 1493 1493 1493 1493 1493 1492 1492 1491 1491
1494 1495 1485 1481 1481 1482 1483 1483 1484 1483 1484 1484 1485 1485 1486 1486 1487 1487 1487 1487 1488 1488 1488 1489 1489 1489 1488 1488 1488 1489 1489 1489 1489 1489 1490 1490 1490 1489 1490 1490 1489 1488 1488 1487
1488 1486 1483 1482 1482 1482 1482 1483 1483 1483 1483 1483 1484 1484 1485 1485 1486 1486 1486 1486 1486 1486 1485 1486 1486 1486 1486 1486 1485 1485 1485 1485 1485 1485 1486 1486 1486 1486 1486 1486 1486 1485 1485 1485
1488 1485 1483 1483 1482 1482 1482 1482 1482 1481 1482 1482 1482 1483 1483 1483 1484 1483 1483 1483 1483 1483 1482 1482 1482 1482 1482 1482 1482 1482 1482 1482 1482 1482 1483 1483 1483 1483 1483 1483 1483 1482 1482 1482
1487 1482 1483 1482 1481 1481 1481 1481 1481 1480 1481 1481 1480 1480 1481 1481 1481 1481 1481 1481 1481 1480 1480 1480 1479 1478 1478 1478 1478 1478 1478 1478 1479 1479 1479 1479 1480 1480 1480 1480 1480 1480 1479 1479
1479 1480 1480 1480 1480 1480 1480 1480 1480 1479 1479 1479 1478 1478 1479 1479 1479 1479 1478 1478 1478 1478 1477 1477 1476 1475 1475 1475 1475 1475 1475 1475 1475 1476 1476 1476 1476 1476 1477 1477 1477 1477 1477 1476
1478 1478 1478 1478 1479 1478 1478 1478 1478 1477 1477 1476 1476 1476 1476 1476 1476 1476 1476 1476 1476 1475 1474 1474 1473 1472 1472 1472 1472 1471 1471 1472 1472 1472 1473 1473 1473 1473 1474 1474 1473 1473 1474 1474
1476 1476 1477 1477 1477 1476 1476 1476 1476 1475 1475 1474 1474 1474 1473 1473 1473 1474 1474 1474 1473 1473 1472 1471 1470 1469 1469 1469 1468 1468 1468 1468 1469 1469 1469 1470 1470 1471 1471 1471 1470 1470 1471 1471
1474 1474 1474 1475 1475 1475 1475 1474 1474 1474 1473 1472 1472 1472 1472 1471 1471 1471 1471 1471 1470 1470 1469 1469 1467 1466 1466 1465 1465 1465 1465 1465 1466 1466 1467 1467 1467 1467 1467 1467 1467 1467 1468 1468
1471 1472 1472 1472 1473 1473 1473 1473 1473 1472 1471 1470 1470 1469 1469 1468 1468 1468 1469 1468 1468 1467 1466 1465 1464 1464 1463 1462 1462 1462 1462 1462 1463 1463 1464 1464 1464 1465 1465 1465 1465 1465 1465 1466
1468 1469 1470 1470 1470 1470 1470 1470 1470 1469 1468 1468 1467 1467 1466 1466 1465 1465 1466 1465 1465 1464 1463 1462 1462 1461 1460 1460 1460 1459 1459 1459 1460 1460 1461 1461 1462 1462 1463 1463 1463 1463 1463 1463
1467 1467 1467 1467 1467 1468 1468 1468 1467 1466 1465 1465 1465 1464 1464 1464 1464 1463 1463 1462 1461 1461 1460 1460 1459 1459 1457 1456 1456 1456 1457 1457 1457 1457 1458 1459 1460 1460 1461 1461 1461 1461 1461 1461
1465 1465 1465 1465 1465 1465 1465 1464 1464 1463 1463 1463 1462 1461 1461 1461 1461 1460 1460 1459 1459 1458 1458 1457 1457 1456 1455 1455 1454 1454 1454 1454 1454 1455 1456 1456 1457 1458 1458 1458 1458 1458 1458 1459
1463 1463 1463 1463 1463 1462 1461 1461 1461 1460 1460 1459 1459 1459 1458 1458 1458 1458 1457 1456 1456 1456 1455 1455 1454 1453 1453 1453 1452 1452 1452 1452 1453 1453 1453 1454 1455 1455 1456 1456 1456 1456 1456 1456
1461 1461 1461 1460 1459 1459 1458 1458 1458 1457 1456 1456 1456 1456 1456 1455 1455 1455 1454 1454 1454 1453 1452 1451 1451 1451 1450 1450 1450 1450 1450 1450 1451 1451 1451 1452 1452 1452 1453 1453 1453 1453 1453 1454
1458 1458 1457 1457 1456 1455 1455 1455 1455 1454 1453 1453 1453 1453 1452 1452 1451 1451 1450 1451 1451 1450 1449 1449 1449 1449 1449 1449 1449 1449 1449 1449 1449 1449 1449 1450 1450 1450 1451 1451 1451 1451 1451 1451
1456 1455 1454 1454 1453 1453 1452 1452 1451 1451 1450 1450 1450 1450 1450 1449 1448 1448 1448 1448 1448 1447 1447 1447 1447 1447 1447 1447 1447 1447 1447 1447 1447 1448 1448 1448 1448 1448 1448 1448 1448 1448 1448 1448
1454 1453 1452 1451 1450 1450 1450 1449 1448 1448 1448 1447 1447 1447 1447 1446 1446 1445 1445 1445 1445 1444 1444 1445 1445 1445 1445 1445 1446 1446 1446 1446 1447 1447 1447 1447 1447 1447 1446 1446 1446 1446 1446 1446
1451 1451 1450 1449 1448 1448 1448 1447 1447 1446 1446 1445 1444 1444 1444 1443 1443 1443 1442 1442 1442 1442 1442 1442 1442 1443 1443 1444 1444 1445 1445 1445 1446 1446 1446 1446 1445 1445 1444 1444 1444 1444 1444 1443
1450 1449 1448 1447 1447 1447 1446 1446 1445 1445 1444 1443 1442 1442 1442 1441 1441 1441 1440 1440 1440 1440 1440 1440 1441 1441 1441 1442 1443 1443 1443 1444 1444 1444 1444 1444 1444 1443 1443 1442 1442 1441 1441 1441